Weather Roundup
Issued by NWS

Home | Current Version | Previous Version | Graphics & Text | Print | Product List | Glossary On
Versions: 1 2 3 4 5 6 7 8 9 10 11 12 13 14 15 16 17 18 19 20 21 22 23 24 25 26 27 28 29 30 31 32 33 34 35 36 37 38 39 40 41 42 43 44 45 46 47 48 49 50
000
NZUS93 KARX 252210
HRRWXR

CURRENT HOURLY OBSERVATIONS ACROSS
MUCH OF THE UPPER MISSISSIPPI VALLEY
NATIONAL WEATHER SERVICE LA CROSSE WI
400 PM CST SUN JAN 25 2015


...SOUTHEAST MINNESOTA...


CITY           SKY/WX    TMP DP  RH WIND       PRES   REMARKS
ROCHESTER      CLOUDY    26  17  68 N7        30.00R WCI  18
ROCHESTER/MAYO CLOUDY    26  16  64 CALM      30.01S
WINONA         CLEAR     30  18  59 E5        30.05R WCI  25
AUSTIN         CLOUDY    25  21  86 N6        30.01R WCI  18
ALBERT LEA     CLOUDY    27  23  86 N6        30.01R WCI  20
DODGE CENTER   CLOUDY    25  19  80 NE8       30.01R WCI  16
PRESTON        CLOUDY    26  19  76 N10       30.00R WCI  16
OWATONNA       CLOUDY    23  16  74 N5        30.02R WCI  17
FARIBAULT      CLOUDY    23  18  80 N3        30.03S
$$

...ELSEWHERE IN MINNESOTA...


CITY           SKY/WX    TMP DP  RH WIND       PRES   REMARKS
MINNEAPOLIS    PTCLDY    26  11  52 E3        30.03F
INTNL FALLS    CLOUDY    18   8  65 VRB3      29.97F
DULUTH         FLURRIES  20  13  74 E10       29.99F WCI   9
RED WING       CLOUDY    25  14  63 E6        30.03F WCI  18
REDWOOD FALLS  CLOUDY    30  23  75 CALM      30.03S
MANKATO        CLOUDY    27  18  69 NE5       30.03S WCI  21
WORTHINGTON    CLOUDY    30  27  86 N5        30.02S WCI  25
FAIRMONT       CLOUDY    28  21  74 N8        30.03R WCI  20
$$

...SOUTHWEST WISCONSIN...


CITY           SKY/WX    TMP DP  RH WIND       PRES   REMARKS
LA CROSSE      CLEAR     29  14  53 NE9       30.03R WCI  20
PRAIRIE DU CHI CLEAR     29  15  55 N7        29.99S WCI  22
BOSCOBEL       CLEAR     28  13  53 E10G16    30.01R WCI  19
LONE ROCK      PTCLDY    24  12  60 N10G20    30.02R WCI  14
PLATTEVILLE    CLOUDY    24  17  75 N14       29.97R WCI  12
FORT MC COY    CLEAR     26  11  53 NE5       30.03S WCI  21
CAMP DOUGLAS   CLEAR     24  11  57 E9        30.02R WCI  14
VIROQUA        FAIR      25  14  61 N9        29.98R WCI  16
WIS DELLS      CLEAR     23  10  58 N10       30.01R WCI  12
$$

...ELSEWHERE IN WISCONSIN...


CITY           SKY/WX    TMP DP  RH WIND       PRES   REMARKS
MILWAUKEE      MOCLDY    25  13  60 NE18G25   29.96R WCI  11
MADISON        PTCLDY    24  13  62 N16       29.98R WCI  11
GREEN BAY      CLEAR     20  10  65 NE16      30.05R WCI   6
EAU CLAIRE     CLOUDY    23  10  57 E7        30.04R WCI  15
BLACK RVR FLS  FAIR      26  10  52 E3        30.02S
MEDFORD        CLOUDY    19   8  62 S3        30.00R
WAUSAU         CLOUDY    20   6  55 NE5       30.00R WCI  13
WIS RAPIDS     PTCLDY    20   5  52 E5        30.04R WCI  13
MARSHFIELD     CLOUDY    21   9  59 NE7       30.00S WCI  12
RICE LAKE      CLOUDY    22  11  61 CALM      30.04F
$$

...NORTHEAST IOWA...


CITY           SKY/WX    TMP DP  RH WIND       PRES   REMARKS
DECORAH        CLEAR     28  18  64 N12       29.98R WCI  18
MASON CITY     CLOUDY    29  25  85 N8        30.02R WCI  21
CHARLES CITY   CLOUDY    30  27  86 N12       30.00R WCI  21
OELWEIN        SUNNY     30  21  69 N12G17    29.97R WCI  21
$$

...ELSEWHERE IN IOWA...


CITY           SKY/WX    TMP DP  RH WIND       PRES   REMARKS
DES MOINES     CLOUDY    35  28  75 N13       30.00R WCI  26
IOWA CITY      CLOUDY    28  21  75 N15G23    29.98R WCI  16
FORT DODGE     CLOUDY    32  25  74 N7        30.03R WCI  26
$$

...NORTHERN ILLINOIS...


CITY           SKY/WX    TMP DP  RH WIND       PRES   REMARKS
CHICAGO-OHARE  CLOUDY    26  18  71 NE21G30   29.89R WCI  12
CHICAGO-MIDWAY FLURRIES  29  22  75 NE23G31   29.88R WCI  15
MOLINE         CLOUDY    29  20  69 NE16      29.91R WCI  17
ROCKFORD       MOCLDY    26  13  57 NE18G28   29.94R WCI  13
PEORIA         MIX PCPN  31  26  82 N16G23    29.83R WCI  20
$$

NOTE: "FAIR" INDICATES FEW OR NO CLOUDS BELOW 12,000 FEET WITH NO
SIGNIFICANT WEATHER AND/OR OBSTRUCTIONS TO VISIBILITY. WIND
SPEEDS ARE IN MILES-PER-HOUR.



USA.gov is the U.S. government's official web portal to all federal, state and local government web resources and services.